カタログに戻る

STARLINK-36301

運用中通信VLEO
NORAD 67932·PAYLOAD·🇺🇸 United States

打ち上げ Feb 24, 2026 から Vandenberg Space Force Base

Loading…

次のパス (今後24時間)

TLE

最新Source: CelesTrak SupGP

元期: Sep 14, 2026, 22:57 UTC

1 67932C 26037A   26257.95673611 -.00014996  00000+0 -54321-3 0  2570
2 67932  43.0032 202.2698 0001466 264.0525  26.3451 15.27582539    10

AllMySatでSTARLINK-36301をリアルタイム追跡

Download on the App Store